Location: Helensbirgh
(56.0153°N, 4.7348°W)
Time: 03:54:48
(UTC+00:00)

N. Korean satellite - Pass Details

Date: 01 November 2019
Orbit: 456 x 506 km, 97.2° (Epoch: 17 November)

Event Time Altitude Azimuth Distance (km) Brightness Sun altitude
Rises 18:11:03 0° 201° (SSW) 2,500 10.6 -13.2°
Reaches altitude 10° 18:13:27 10° 219° (SW) 1,638 9.9 -13.5°
Maximum altitude 18:16:09 20° 269° (W) 1,150 9.5 -13.9°
Drops below altitude 10° 18:18:53 10° 319° (NW) 1,671 9.8 -14.3°
Sets 18:21:23 0° 336° (NNW) 2,568 10.5 -14.6°
